Вернуться в каталог

YUNHAI 1-03

АктивенНаукаSSO
NORAD 53877·PAYLOAD·🇨🇳 China

Запущен Sep 20, 2022 с Jiuquan Satellite Launch Center

Loading…

Ближайшие Пролёты (ближайшие 24 часа)

TLE

СвежийSource: Space-Track

Эпоха: Sep 15, 2026, 00:02 UTC

1 53877U 22115A   26258.00174419  .00000257  00000-0  11078-3 0  9994
2 53877  98.5604 255.0260 0005299 124.9262 235.2421 14.32543961208372

Отслеживайте YUNHAI 1-03 в реальном времени с AllMySat

Download on the App Store